#timestamp,LO_Frequency,Hit,StdDev 
1642690815.2,286046996.9,N
1642690835.9,286046996.6,N
1642690855.7,286046999.6,N
1642690875.6,286047000.8,N
1642690895.4,286047000.2,N
1642690915.3,286047000.3,N
1642690935.1,286047000.3,N
1642690936.0,286047000.3,N
1642690955.8,286047002.2,N
1642690975.7,286047004.4,N
1642690995.5,286047001.8,N
1642691015.4,286047001.6,N
1642691035.2,286047003.1,N
1642691055.0,286047001.6,N
1642691055.9,286047001.6,N
1642691075.8,286047002.0,N
1642691095.6,286047000.0,N
1642691115.4,286046999.1,N
1642691135.3,286046998.6,N
1642691155.1,286046998.6,N
1642691175.9,286047001.2,N
1642691195.7,286046998.2,N
1642691215.5,286046999.0,N
1642691235.4,286046999.5,N
1642691255.2,286047001.2,N
1642691275.0,286046999.9,N
1642691275.9,286046999.9,N
1642691295.8,286047002.6,N
1642691315.6,286047001.0,N
1642691335.5,286047000.7,N
1642691355.3,286047000.5,N
1642691375.1,286047001.5,N
1642691395.9,286046999.7,N
1642691415.7,286046999.7,N
1642691435.6,286046998.9,N
1642691455.4,286046998.3,N
1642691475.2,286046998.1,N
1642691495.1,286047000.9,N
1642691496.0,286047000.9,N
1642691515.8,286046998.2,N
1642691535.6,286047001.2,N
1642691555.5,286047000.6,N
1642691575.3,286047000.8,N
1642691595.2,286047000.6,N
1642691615.9,286047000.1,N
1642691635.7,286047002.7,N
1642691655.6,286047000.1,N
1642691675.4,286047002.3,N
1642691695.3,286047000.0,N
1642691715.1,286047002.3,N
1642691716.0,286047002.3,N
1642691735.8,286047001.9,N
1642691755.7,286047002.1,N
1642691775.5,286047000.1,N
1642691795.3,286046999.7,N
1642691815.2,286047001.9,N
1642691835.0,286047002.7,N
1642691835.9,286047002.7,N
1642691855.8,286046999.7,N
1642691875.6,286047000.5,N
1642691895.4,286047000.5,N
1642691915.3,286047002.6,N
1642691935.1,286047002.2,N
1642691955.9,286047001.7,N
1642691975.7,286047002.2,N
1642691995.5,286047001.6,N
1642692015.4,286047002.2,N
1642692035.2,286047001.6,N
1642692055.0,286047001.9,N
1642692055.9,286047001.9,N
1642692075.8,286047000.1,N
1642692095.6,286047002.4,N
1642692115.5,286047001.5,N
1642692135.3,286047001.9,N
1642692155.1,286047001.8,N
1642692175.9,286047004.3,Y
1642692195.7,286046999.8,P
1642692215.5,286046998.3,N
1642692235.4,286046999.0,N
1642692255.2,286046999.4,N
1642692275.1,286046999.6,N
1642692276.0,286046999.6,N
1642692295.8,286046999.3,N
1642692315.6,286046998.7,N
1642692335.5,286046998.1,N
1642692355.3,286047001.2,N
1642692375.1,286047002.7,N
1642692395.9,286047000.7,N
1642692415.7,286046999.2,N
1642692435.6,286046997.0,N
1642692455.4,286046996.7,N
1642692475.2,286046997.8,N
1642692495.1,286046999.2,N
1642692496.0,286046999.2,N
1642692515.8,286046998.7,N
1642692535.7,286046999.2,N
1642692555.5,286046999.2,N
1642692575.3,286046999.5,N
1642692595.2,286046999.6,N
1642692615.9,286046998.4,N
1642692635.7,286046999.4,N
1642692655.6,286046999.0,N
1642692675.4,286047000.5,N
1642692695.3,286046999.8,N
1642692715.1,286047000.4,N
1642692716.0,286047000.4,N
1642692735.8,286047000.1,N
1642692755.7,286047002.3,N
1642692775.5,286047002.5,N
1642692795.3,286047002.3,N
1642692815.2,286047002.2,N
1642692835.0,286047002.0,N
1642692835.9,286047002.0,N
1642692855.8,286047002.8,N
1642692875.6,286047001.9,N
1642692895.4,286047000.5,N
1642692915.3,286047000.9,N
1642692935.1,286047000.8,N
1642692955.8,286046998.6,N
1642692975.7,286047002.5,N
1642692995.5,286047002.8,N
1642693015.4,286047001.5,N
1642693035.2,286047001.5,N
1642693055.0,286047002.6,N
1642693055.9,286047002.6,N
1642693075.8,286047002.0,N
1642693095.6,286047002.2,N
1642693115.4,286047001.5,N
1642693135.3,286047002.7,N
1642693155.1,286047002.3,N
1642693175.9,286047002.5,N
1642693195.7,286047001.6,N
1642693215.5,286047002.5,N
1642693235.4,286046999.7,N
1642693255.2,286047000.2,N
1642693275.0,286046999.8,N
1642693275.9,286046999.8,N
1642693295.8,286047002.6,N
1642693315.6,286047002.6,N
1642693335.5,286047001.1,N
1642693355.3,286047000.6,N
1642693375.1,286047002.8,N
1642693395.9,286047001.5,N
1642693415.7,286047000.3,N
1642693435.6,286046998.8,N
1642693455.4,286047001.2,N
1642693475.2,286047000.2,N
1642693495.1,286047000.0,N
1642693496.0,286047000.0,N
1642693515.8,286047002.2,N
1642693535.6,286047000.4,N
1642693555.5,286047000.0,N
1642693575.3,286047001.9,N
1642693595.2,286047002.3,N
1642693615.9,286047001.6,N
1642693635.7,286046999.8,N
1642693655.6,286046999.8,N
1642693675.4,286047000.2,N
1642693695.2,286047002.8,N
1642693715.1,286047002.7,N
1642693716.0,286047002.7,N
1642693735.8,286047002.7,N
1642693755.7,286047002.3,N
1642693775.5,286047000.1,N
1642693795.3,286047002.1,N
1642693815.2,286047000.4,N
1642693835.0,286047000.4,N
1642693835.9,286047000.4,N
1642693855.8,286046999.7,N
1642693875.6,286046999.7,N
1642693895.4,286047001.3,N
1642693915.3,286047004.4,Y
1642693935.1,286047000.7,P
1642693955.8,286046996.6,P
1642693975.7,286046996.9,N
1642693995.5,286046996.8,N
1642694015.4,286046999.3,N
1642694035.2,286046998.5,N
1642694055.0,286046998.1,N
1642694055.9,286046998.1,N
1642694075.8,286047000.3,N
1642694095.6,286047002.8,N
1642694115.5,286047001.9,N
1642694135.3,286047001.9,N
1642694155.1,286047001.4,N
1642694175.9,286047001.5,N
1642694195.7,286047001.7,N
1642694215.6,286047001.3,N
1642694235.4,286047002.1,N
1642694255.3,286047004.4,N
1642694275.1,286047002.5,N
1642694295.8,286047001.9,N
1642694315.7,286047004.2,N
1642694335.5,286047003.8,N
1642694355.4,286047003.5,N
1642694375.2,286047003.5,N
1642694395.0,286047004.3,N
1642694395.9,286047004.3,N
